Retour au catalogue

AMOS 5I

ASIASAT 2

ActifCommunicationsGEO
NORAD 23723·PAYLOAD·🇮🇱 Israel

Lancé Nov 28, 1995 depuis Xichang Satellite Launch Center

Loading…

TLE

FraisSource: Space-Track

Époque: Sep 14, 2026, 10:40 UTC

1 23723U 95064A   26257.44495126  .00000077  00000-0  00000-0 0  9992
2 23723  11.4658  40.8556 0004064 321.1543 214.1948  0.99302112112218

Suivez AMOS 5I en temps réel avec AllMySat

Download on the App Store